Find SES-2

NORAD ID: 37809 Int'l Des: 2011-049 Owner: SESSL Country: UK operational
HEOCIRCULARGSOGEO

实时位置

正在加载3D地球...

关于 SES-2

正在加载描述...

即将过境

Passes for default location (London). Set your location on the main map for personalized predictions.

高度历史

Loading altitude history...

两行轨道根数

1 37809U 11049A 26106.36919703 -.00000189 00000-0 00000+0 0 9993
2 37809 0.0555 66.9254 0002806 314.7878 228.7237 1.00272850 53341
Epoch: Apr 16, 2026 • Age: 17 hours

当前状态

高度 35793.2 km
速度 3.07 km/s
星下点 0.02°N, 86.97°W
发射日期 Sep 21, 2011
运行时间 14.5 years
类型 communications

技术详情

分类 Payload
质量 3200.00 kg
干质量 1500.00 kg
总质量 3200.00 kg
长度 4.90 m
直径 2.30 m
跨度 23.60 m
形状 Box + 2 Pan
制造商 OSCD
平台类型 Star-2.4
阶段状态 Renamed
所有者/国家 SESSL/UK

Most Searched